Simultaneous Nadir Overpasses (SNOs) Predictions

Prediction of SNOs between GOES-15 and TERRA Satellite Orbit:

Table of predicted SNOs for the next 14.0 days since TLE Epoch: 6/27/2015
Index Date Time (GOES-15) GOES-15 Lat,Lon TERRA Lat,Lon Distance(km) Time Diff (sec)
1 06/27/2015 07:31:51 0.06,-134.69 -0.02,-134.99 35.43 80
2 06/29/2015 07:17:03 0.07,-134.76 0.66,-132.06 307.55 80
3 06/29/2015 19:40:57 -0.05,-134.74 0.48,-137.20 280.27 80
4 07/01/2015 19:26:07 -0.05,-134.80 -0.16,-134.25 61.65 80
5 07/03/2015 19:13:57 -0.06,-134.85 -0.80,-131.30 402.91 80
6 07/04/2015 07:38:02 0.04,-134.90 -0.28,-136.50 182.08 80
7 07/06/2015 07:23:11 0.05,-134.94 0.32,-133.54 158.63 80
8 07/06/2015 19:47:07 -0.03,-134.92 0.75,-138.71 429.52 80
9 07/08/2015 07:11:01 0.06,-134.99 0.99,-130.60 498.95 80
10 07/08/2015 19:34:56 -0.03,-134.96 0.14,-135.75 89.29 80
11 07/10/2015 19:20:05 -0.04,-135.00 -0.48,-132.79 250.44 80




NCC Satellite Simultaneous Nadir Overpasses (SNOs) Prediction Service
